FW4335 Weather Reports


Display with metric or nautical units.
time (UTC)temp
F
wind
direction
speed
MPH
gust
MPH
rain 1hr
in
rain 24hr
in
rain mn
in
humidity
%
barometer
mb
20200331104530 37 97 0.0 0.0 0.05 0.85 0.15 98 1.0
20200331103028 37 28 0.0 0.0 0.05 0.86 0.14 98 1.0
20200331101531 37 360 0.0 0.0 0.05 0.86 0.13 98 1.0
20200331100030 37 7 0.0 0.0 0.05 0.88 0.12 98 1.0
20200331094531 37 254 0.0 0.0 0.03 0.89 0.10 98 1.0
20200331093030 37 312 0.0 0.0 0.02 0.88 0.09 97 1.0
20200331084531 37 315 0.0 0.0 0.03 0.87 0.07 97 1.0
20200331083030 37 300 0.0 0.0 0.03 0.87 0.07 97 1.0
20200331081530 37 202 0.0 0.0 0.04 0.87 0.07 97 1.0
20200331080031 37 178 0.0 0.0 0.03 0.85 0.05 97 1.0
20200331074529 37 157 0.0 0.0 0.04 0.84 0.04 97 1.0
20200331073031 38 157 0.0 0.0 0.06 0.84 0.04 97 1.0
20200331071534 38 157 0.0 0.0 0.07 0.83 0.03 97 1.0
20200331070030 38 157 0.0 0.0 0.08 0.82 0.02 97 1.0
20200331064529 38 157 0.0 0.0 0.07 0.80 0.80 97 1.0
20200331063029 38 157 0.0 0.0 0.06 0.78 0.78 97 1.0
20200331061531 38 157 0.0 0.0 0.06 0.76 0.76 97 1.0
20200331060031 38 142 0.0 0.0 0.04 0.74 0.74 97 1.0
20200331054532 39 112 0.0 0.0 0.03 0.73 0.73 97 1.0
20200331053032 39 18 0.0 0.0 0.03 0.72 0.72 97 1.0
20200331051531 39 337 0.0 0.0 0.03 0.70 0.70 97 1.0
20200331050030 39 337 0.0 0.0 0.03 0.70 0.70 97 1.0
20200331044529 39 337 1.0 0.0 0.04 0.70 0.70 96 1.0
20200331043033 39 337 2.0 0.0 0.04 0.69 0.69 96 1.0
20200331041530 40 3 2.0 0.0 0.03 0.67 0.67 96 1.0
20200331040030 40 19 2.0 0.0 0.04 0.67 0.67 96 1.0
20200331034529 40 142 0.0 0.0 0.05 0.66 0.66 96 1.0
20200331033031 41 342 0.0 0.0 0.05 0.65 0.65 95 1.0
20200331031529 41 292 0.0 0.0 0.05 0.64 0.64 95 1.0
20200331030027 41 292 0.0 0.0 0.05 0.63 0.00 93 1.0
20200331024531 41 292 0.0 0.0 0.04 0.61 0.61 92 1.0
20200331023030 41 263 0.0 0.0 0.03 0.60 0.60 92 1.0
20200331021529 42 157 0.0 0.0 0.03 0.59 0.59 92 1.0
20200331020031 42 156 0.0 0.0 0.02 0.57 0.57 91 1.0
20200331014530 42 23 0.0 0.0 0.02 0.56 0.56 93 1.0
20200331013033 42 315 0.0 0.0 0.02 0.56 0.56 93 1.0
20200331011531 43 315 0.0 0.0 0.01 0.56 0.56 93 1.0
20200331010031 43 315 0.0 0.0 0.01 0.56 0.56 92 1.0
20200331004530 43 312 0.0 0.0 0.01 0.55 0.55 90 1.0
20200331003028 43 256 1.0 0.0 0.03 0.55 0.55 90 1.0
20200331001530 42 134 1.0 0.0 0.03 0.55 0.55 91 1.0
20200330234531 42 176 2.0 0.0 0.05 0.54 0.54 89 1.0
20200330233030 43 88 2.0 0.0 0.06 0.52 0.52 89 1.0
20200330231531 43 330 3.0 0.0 0.07 0.52 0.52 87 1.0
20200330230029 42 167 3.0 0.0 0.06 0.51 0.51 88 1.0
20200330224528 43 285 3.0 0.0 0.04 0.49 0.49 86 1.0
20200330223029 45 300 3.0 0.0 0.01 0.46 0.46 82 1.0
20200330221530 46 275 2.0 0.0 0.01 0.45 0.00 81 1.0
20200330220030 45 273 2.0 0.0 0.01 0.45 0.00 82 1.0
20200330214532 44 315 1.0 0.0 0.01 0.45 0.00 83 1.0
20200330213031 44 195 1.0 0.0 0.02 0.45 0.00 84 1.0
20200330211532 44 180 1.0 0.0 0.01 0.44 0.00 84 1.0
20200330210029 44 206 2.0 0.0 0.01 0.44 0.00 85 1.0
20200330204529 43 204 4.0 0.0 0.02 0.44 0.00 85 1.0
20200330203030 43 186 3.0 0.0 0.01 0.43 0.00 85 1.0
20200330201531 43 172 4.0 0.0 0.02 0.43 0.00 86 1.0
20200330200028 42 166 2.0 0.0 0.03 0.43 0.00 87 1.0
20200330194530 42 181 4.0 0.0 0.02 0.43 0.00 85 1.0
20200330193032 42 187 3.0 0.0 0.02 0.43 0.00 84 1.0
20200330191530 42 188 3.0 0.0 0.01 0.43 0.00 85 1.0
20200330190030 42 185 3.0 0.0 0.00 0.42 0.00 85 1.0
20200330184530 42 169 4.0 0.0 0.00 0.43 0.00 86 1.0
20200330183031 41 180 5.0 0.0 0.00 0.43 0.00 84 1.0
20200330181529 42 186 7.0 0.0 0.01 0.43 0.00 82 1.0
20200330180029 42 164 4.0 0.0 0.01 0.43 0.00 82 1.0
20200330174531 42 195 5.0 0.0 0.02 0.43 0.00 83 1.0
20200330173031 41 201 5.0 0.0 0.03 0.43 0.00 88 1.0
20200330171529 41 175 4.0 0.0 0.02 0.42 0.00 90 1.0
20200330170029 41 177 3.0 0.0 0.03 0.42 0.00 90 1.0
20200330164527 41 183 3.0 0.0 0.02 0.41 0.00 89 1.0
20200330163032 42 188 3.0 0.0 0.02 0.40 0.00 89 1.0
20200330161529 42 180 4.0 0.0 0.04 0.40 0.00 89 1.0
20200330160029 42 166 3.0 0.0 0.04 0.39 0.00 90 1.0
20200330154529 43 165 3.0 0.0 0.06 0.39 0.00 90 1.0
20200330153031 43 159 2.0 0.0 0.07 0.40 0.00 90 1.0
20200330151532 44 184 4.0 0.0 0.05 0.39 0.00 88 1.0
20200330150028 45 165 4.0 0.0 0.06 0.40 0.00 88 1.0
20200330144530 45 195 4.0 0.0 0.06 0.39 0.00 88 1.0
20200330143029 45 198 4.0 0.0 0.05 0.38 0.00 90 1.0
20200330141532 44 171 4.0 0.0 0.06 0.39 0.00 93 1.0
20200330140028 44 191 1.0 0.0 0.06 0.38 0.00 95 1.0
20200330134533 43 185 0.0 0.0 0.05 0.36 0.00 97 1.0
20200330133053 43 117 2.0 0.0 0.04 0.36 0.00 98 1.0
20200330131530 43 140 1.0 0.0 0.05 0.36 0.00 98 1.0
20200330130031 43 241 0.0 0.0 0.05 0.35 0.00 98 1.0
20200330124529 43 202 0.0 0.0 0.05 0.35 0.00 97 1.0
20200330123030 43 202 0.0 0.0 0.06 0.35 0.00 97 1.0
20200330121530 43 202 0.0 0.0 0.04 0.33 0.00 97 1.0
20200330120032 43 178 0.0 0.0 0.03 0.31 0.00 97 1.0
20200330114530 43 157 0.0 0.0 0.04 0.30 0.00 96 1.0
20200330113030 43 157 0.0 0.0 0.05 0.28 0.00 96 1.0
20200330111528 43 157 0.0 0.0 0.06 0.28 0.00 96 1.0
20200330110029 43 135 0.0 0.0 0.08 0.28 0.00 96 1.0